Wind_Speed
19 19 19 20 21 18 13 11 10 8 8 10 12 13 14 17 17 16 14 14 15 15 14 17 17 16 15 10 9 5 2 5 4 7 5 6 6 10 6 6 5 2 3 4 4
20 20 20 21 21 21 16 12 9 8 9 9 11 14 15 17 19 22 17 17 15 16 16 18 19 18 17 13 11 9 3 3 8 2 2 9 13 10 10 11 6 2 2 2 2
20 21 21 22 21 22 21 17 12 10 11 12 13 16 18 20 21 23 23 21 19 19 18 19 19 19 18 15 11 10 3 0 2 7 10 8 17 14 12 13 9 5 3 1 2
19 22 23 24 24 24 23 17 15 14 16 18 22 23 24 24 23 24 24 25 22 20 20 19 19 19 18 17 15 12 5 4 3 6 10 11 24 11 15 15 11 7 5 1 1
21 24 25 26 26 27 26 21 20 20 20 22 24 29 31 29 27 26 28 28 25 23 22 23 22 21 23 21 19 11 7 8 3 6 8 8 19 17 19 15 12 8 7 3 5
23 24 26 26 28 28 28 25 25 24 25 25 26 28 29 32 26 26 31 31 29 27 27 25 25 26 26 22 20 13 13 10 3 4 6 5 21 19 24 15 15 10 9 6 3
24 24 27 28 28 29 28 28 28 29 28 27 26 25 26 27 25 26 33 33 32 30 30 30 30 29 23 21 21 17 5 7 6 4 2 15 20 20 14 18 17 15 11 9 7
25 26 27 28 29 28 28 29 29 29 27 24 25 24 22 22 27 28 33 35 35 32 34 34 34 31 29 26 21 13 11 3 5 3 4 17 21 27 16 21 18 16 13 11 10
27 27 27 29 29 27 28 28 26 24 24 24 23 22 20 22 26 29 30 34 36 34 36 37 34 29 26 21 18 16 11 10 10 10 9 11 27 26 27 22 21 19 16 13 11
26 25 27 27 25 27 27 25 23 24 24 22 20 20 18 20 22 26 28 32 35 37 36 38 34 30 26 23 23 11 7 10 12 11 16 18 30 31 27 27 23 21 18 15 11
24 25 25 25 23 25 23 22 21 23 22 19 18 13 11 11 18 22 25 29 33 37 33 36 33 30 24 19 21 13 9 14 23 13 8 12 34 26 30 28 26 23 19 16 13
24 24 23 22 22 21 20 18 20 21 18 17 12 7 5 10 16 20 23 27 31 33 34 38 34 29 27 23 20 21 12 15 15 8 12 12 34 27 29 30 28 27 23 19 16
23 22 21 20 21 18 15 18 21 18 14 11 12 4 2 7 12 17 21 24 28 31 35 32 33 27 27 25 27 27 19 9 18 25 9 11 30 24 32 33 29 29 26 24 18
22 21 19 18 17 12 14 17 17 18 19 22 18 9 2 7 10 16 20 23 27 29 30 32 34 34 28 26 28 27 20 23 14 17 17 7 17 32 35 29 27 29 26 26 20
21 19 17 16 14 9 11 17 16 12 21 21 21 12 6 3 9 16 18 22 29 27 29 30 31 36 33 28 27 30 21 9 22 17 21 16 7 17 23 24 25 29 27 28 23
20 16 14 14 10 7 11 12 13 17 20 12 19 13 6 11 3 7 16 20 25 32 32 32 33 32 37 29 24 34 15 8 20 12 13 16 6 7 16 9 11 22 29 33 31
17 14 12 12 7 3 5 12 11 21 16 7 8 10 11 9 11 6 13 19 21 26 29 31 34 32 34 36 28 34 18 9 8 11 12 21 8 7 7 10 3 3 17 23 27
16 13 10 8 4 1 4 7 11 3 8 7 9 7 8 14 10 10 1 15 20 23 26 20 27 35 38 40 35 34 15 20 16 8 6 7 3 7 12 16 4 5 13 33 28
15 11 7 9 2 3 2 7 10 8 7 5 3 3 5 6 7 3 8 4 15 16 20 11 13 7 19 30 32 34 34 15 14 22 12 9 10 20 9 9 7 5 8 18 27
14 11 8 7 3 4 5 6 5 6 5 5 3 5 6 7 13 10 16 17 21 21 24 18 15 21 15 18 30 33 29 27 26 20 10 8 12 18 13 16 15 11 12 16 21
13 8 8 8 5 4 5 3 5 7 6 6 4 5 10 10 14 12 17 21 23 24 29 26 20 25 21 23 23 35 33 34 28 26 15 26 19 20 12 18 21 24 22 17 22
13 8 8 6 5 9 10 4 5 7 6 6 7 8 11 14 18 24 28 19 22 28 29 33 24 28 25 19 17 22 35 33 27 27 26 25 22 21 19 19 29 21 17 20 20
12 8 10 5 6 9 10 12 11 9 6 7 9 8 8 12 13 16 9 17 22 29 28 34 29 28 27 24 19 14 31 40 37 29 32 20 18 26 20 19 2 11 9 13 18
15 12 7 7 8 11 10 13 13 9 8 9 10 11 11 13 20 20 22 16 16 19 27 31 36 29 29 28 25 22 19 24 39 41 33 24 19 22 28 15 7 10 17 9 12
19 16 14 11 13 14 14 16 14 13 9 10 12 14 14 16 13 15 18 19 21 21 11 33 36 35 26 22 23 24 18 11 28 34 32 25 20 27 26 21 14 16 17 19 20
21 19 13 15 18 12 13 15 14 13 10 14 13 16 18 18 15 12 15 18 18 20 17 24 32 43 39 29 28 29 26 25 30 28 28 25 24 27 27 24 25 26 34 31 29
16 15 12 16 14 15 17 18 9 11 12 15 15 17 20 16 11 10 11 14 17 11 15 26 36 32 43 40 24 32 29 29 31 30 30 30 28 29 32 33 34 33 11 28 24
Wind_Direction
355 358 359 358 1 4 5 360 354 340 329 306 295 281 264 254 241 236 232 220 226 239 232 222 211 209 211 211 196 167 138 315 13 125 317 229 187 181 252 279 222 271 17 15 8
346 350 350 353 358 1 358 353 339 335 321 303 290 281 270 255 242 234 226 230 225 227 233 217 211 205 204 211 197 179 208 266 17 354 5 216 196 209 180 208 244 236 57 351 312
340 344 348 351 351 351 350 347 336 319 303 281 271 267 265 256 241 234 225 225 224 220 226 226 213 201 201 209 206 187 193 79 89 309 334 196 203 216 235 223 212 206 262 195 271
337 341 343 342 343 345 346 340 327 309 290 279 265 260 255 253 246 233 223 227 221 221 218 221 202 211 205 203 208 193 242 230 297 330 309 220 200 204 219 197 219 204 232 212 204
337 340 339 335 335 341 343 336 327 315 301 283 272 265 260 255 245 231 220 220 219 214 214 206 201 207 212 197 210 193 224 218 234 288 291 242 206 198 191 221 211 211 226 218 185
333 332 336 333 335 337 339 336 328 318 308 293 281 272 267 261 251 236 225 216 214 211 208 202 195 207 215 204 208 183 212 169 236 298 274 233 202 201 205 206 207 210 216 227 200
329 332 335 334 334 336 336 332 328 320 310 302 292 277 269 260 248 230 225 217 210 211 206 195 192 204 207 210 215 213 178 147 245 354 295 201 192 200 219 205 198 208 207 216 204
333 336 337 335 336 337 334 330 325 319 313 302 292 282 271 258 236 221 215 214 210 209 204 198 196 202 206 207 200 211 219 242 235 289 296 206 197 201 198 202 200 206 205 208 197
329 337 337 337 338 336 332 328 325 321 312 304 296 285 265 249 237 228 216 207 206 207 202 199 197 200 206 205 198 189 219 240 247 293 235 259 199 211 215 213 202 205 207 204 190
332 338 338 337 337 335 331 331 329 323 316 311 299 284 265 247 237 222 215 206 202 206 203 200 196 192 202 206 218 248 210 214 255 277 299 262 211 211 206 212 208 206 208 201 196
337 337 338 337 336 336 336 334 332 328 320 319 308 289 265 242 221 216 210 204 202 203 203 203 193 192 194 200 226 209 229 231 244 245 231 195 179 206 210 208 206 207 207 206 197
337 336 336 336 337 340 340 335 336 327 326 323 314 308 259 214 210 201 200 202 202 199 201 205 193 190 191 193 207 202 221 228 252 274 245 266 197 201 211 209 207 208 209 210 204
335 335 334 337 341 343 342 340 338 336 352 3 20 338 194 194 197 188 195 198 198 199 203 205 196 197 198 192 204 205 229 263 262 271 280 229 201 190 205 209 210 213 209 214 200
332 334 335 340 344 343 358 339 342 4 352 17 20 22 12 183 174 183 192 195 194 197 204 200 201 195 205 202 211 223 209 226 236 256 274 207 196 207 205 213 211 220 221 219 209
330 332 335 343 342 352 346 354 16 18 45 27 23 18 32 14 171 179 197 199 196 189 203 200 203 204 198 199 219 221 201 181 219 255 245 269 267 190 204 204 215 225 229 226 216
329 329 334 342 344 5 347 7 28 36 22 5 9 53 78 24 63 185 200 200 209 197 196 202 195 203 208 199 203 233 242 229 214 262 233 246 202 167 160 135 218 239 245 223 228
325 325 334 338 337 356 8 353 331 39 8 5 24 332 1 359 331 13 214 206 211 213 204 205 204 199 205 211 209 221 242 251 229 264 269 259 242 99 121 130 135 299 229 214 217
322 326 333 328 315 316 346 343 33 130 318 2 110 41 28 342 262 314 272 211 211 214 208 203 214 213 208 207 214 228 221 256 234 231 225 213 228 187 159 177 196 218 199 204 218
321 322 326 314 276 244 309 318 44 25 11 352 111 336 219 161 325 318 351 202 214 206 198 167 239 248 223 220 217 213 219 225 242 248 245 236 235 193 180 189 159 217 198 201 211
317 317 305 293 253 244 273 325 42 22 4 341 285 124 311 241 203 209 184 204 188 192 178 195 213 202 209 230 214 212 214 232 220 262 292 304 289 286 259 190 180 154 162 196 203
316 316 295 257 227 248 277 299 351 350 347 340 321 281 217 267 243 213 231 215 200 191 195 201 200 190 190 229 218 213 221 229 223 220 254 278 281 301 285 178 192 181 157 181 201
317 304 287 256 248 256 244 273 282 302 322 330 310 282 261 282 253 233 234 227 212 204 205 209 199 179 191 210 253 219 212 220 235 226 218 256 278 296 309 321 230 191 171 166 186
314 304 274 244 255 270 261 283 262 275 290 312 312 308 284 273 274 223 252 244 233 206 216 216 216 191 189 192 193 225 219 217 226 230 222 248 275 290 296 311 297 150 172 192 217
304 283 274 250 246 261 250 278 278 239 277 300 306 302 296 270 268 270 278 246 242 258 242 237 212 189 192 201 201 202 219 225 225 229 229 233 276 276 279 288 272 183 175 223 251
305 291 280 263 243 235 260 274 278 264 269 284 298 297 303 300 293 270 275 265 250 261 257 218 212 208 196 211 206 191 197 207 217 221 225 230 245 259 266 266 276 242 220 193 227
306 310 298 284 273 255 262 262 258 260 275 290 301 301 301 308 300 271 257 263 268 259 251 233 204 212 216 210 198 185 198 201 188 206 215 213 247 250 268 256 249 258 237 210 209
307 286 265 263 268 245 258 264 277 255 267 284 299 300 302 310 291 278 265 259 261 251 232 223 205 208 214 213 217 207 192 201 196 213 205 208 225 239 256 260 248 243 173 190 196
Height
5888 5886 5883 5881 5878 5876 5874 5872 5870 5869 5868 5867 5867 5867 5868 5869 5871 5873 5874 5876 5877 5877 5879 5882 5885 5888 5890 5892 5895 5896 5896 5895 5894 5892 5896 5895 5898 5898 5900 5900 5902 5904 5906 5907 5906
5885 5883 5881 5878 5876 5873 5871 5869 5867 5866 5865 5864 5863 5863 5863 5864 5867 5868 5872 5872 5874 5875 5877 5879 5882 5885 5888 5891 5893 5895 5896 5894 5893 5896 5897 5898 5898 5898 5902 5899 5902 5904 5906 5907 5907
5882 5880 5878 5875 5872 5870 5868 5866 5863 5861 5860 5859 5859 5858 5859 5859 5861 5864 5867 5868 5871 5872 5873 5876 5880 5882 5886 5889 5892 5894 5894 5895 5895 5895 5896 5896 5897 5899 5901 5902 5904 5905 5906 5909 5907
5879 5877 5874 5871 5869 5866 5863 5860 5858 5856 5854 5853 5853 5852 5852 5853 5858 5860 5864 5865 5867 5869 5871 5874 5878 5883 5883 5887 5888 5891 5894 5895 5895 5895 5894 5894 5896 5901 5902 5903 5904 5906 5906 5910 5910
5876 5873 5870 5868 5865 5861 5857 5854 5852 5850 5848 5846 5845 5845 5845 5846 5850 5854 5856 5859 5863 5865 5867 5870 5875 5880 5879 5882 5884 5888 5892 5894 5895 5896 5895 5894 5897 5902 5898 5903 5905 5906 5908 5910 5911
5872 5870 5867 5864 5860 5856 5852 5848 5845 5842 5840 5838 5837 5836 5837 5837 5845 5848 5850 5853 5857 5860 5863 5867 5872 5874 5877 5879 5881 5882 5888 5891 5891 5894 5895 5894 5896 5901 5903 5903 5906 5908 5909 5910 5910
5869 5866 5863 5859 5854 5850 5846 5842 5838 5835 5832 5829 5828 5828 5828 5830 5836 5838 5842 5847 5852 5856 5859 5864 5867 5871 5875 5877 5878 5882 5886 5886 5890 5892 5892 5893 5896 5899 5900 5903 5905 5908 5909 5911 5912
5865 5861 5858 5853 5849 5844 5840 5836 5831 5827 5824 5822 5820 5821 5821 5823 5825 5828 5832 5840 5846 5851 5855 5858 5862 5868 5871 5873 5877 5881 5885 5888 5890 5892 5893 5894 5896 5898 5898 5902 5904 5906 5909 5911 5912
5860 5857 5852 5848 5843 5839 5834 5830 5825 5822 5819 5816 5814 5813 5815 5815 5818 5822 5829 5834 5840 5846 5850 5855 5860 5867 5871 5876 5877 5878 5881 5887 5888 5888 5891 5894 5894 5895 5899 5901 5903 5905 5908 5911 5913
5856 5852 5848 5843 5838 5834 5829 5825 5821 5817 5814 5811 5809 5809 5809 5810 5813 5817 5823 5828 5835 5842 5847 5852 5858 5863 5869 5874 5877 5874 5878 5883 5885 5886 5885 5885 5891 5893 5898 5900 5903 5904 5908 5910 5913
5851 5847 5843 5839 5834 5829 5825 5822 5820 5815 5810 5808 5804 5803 5803 5807 5808 5813 5819 5825 5830 5837 5844 5851 5856 5862 5868 5872 5874 5874 5876 5878 5881 5881 5882 5882 5887 5889 5894 5897 5900 5902 5906 5910 5913
5847 5843 5839 5834 5830 5825 5822 5819 5816 5813 5808 5804 5802 5800 5801 5803 5806 5810 5817 5822 5828 5835 5840 5846 5854 5861 5865 5868 5873 5872 5875 5877 5878 5878 5878 5880 5885 5888 5891 5894 5897 5899 5903 5908 5912
5843 5839 5835 5831 5827 5823 5820 5817 5813 5810 5806 5804 5800 5800 5801 5803 5806 5810 5816 5820 5826 5832 5837 5845 5855 5859 5864 5867 5869 5869 5867 5873 5876 5876 5877 5879 5882 5885 5889 5891 5896 5897 5900 5903 5909
5839 5836 5832 5828 5826 5822 5819 5817 5812 5806 5805 5804 5802 5801 5803 5803 5806 5810 5814 5819 5824 5830 5836 5844 5849 5852 5859 5865 5866 5867 5867 5872 5874 5876 5878 5877 5878 5881 5886 5890 5894 5897 5899 5902 5908
5836 5833 5829 5825 5823 5821 5820 5815 5811 5809 5806 5809 5807 5805 5805 5807 5808 5810 5814 5819 5822 5826 5834 5842 5846 5852 5854 5862 5866 5863 5857 5860 5869 5873 5875 5875 5878 5881 5884 5889 5893 5894 5897 5902 5906
5833 5830 5827 5824 5822 5821 5818 5815 5813 5809 5810 5811 5809 5807 5808 5806 5810 5814 5815 5819 5822 5824 5828 5835 5841 5847 5854 5859 5860 5855 5859 5861 5867 5873 5875 5875 5878 5879 5882 5888 5893 5894 5895 5900 5904
5830 5827 5824 5823 5821 5819 5818 5816 5814 5810 5813 5814 5812 5811 5810 5810 5809 5813 5814 5818 5822 5827 5830 5833 5838 5842 5850 5855 5855 5855 5858 5861 5869 5873 5873 5875 5876 5878 5880 5886 5889 5890 5892 5897 5902
5828 5825 5822 5821 5820 5818 5817 5817 5813 5813 5813 5812 5812 5813 5814 5813 5811 5812 5814 5817 5821 5825 5827 5833 5838 5840 5844 5849 5857 5852 5861 5862 5867 5871 5871 5873 5876 5878 5878 5880 5884 5888 5889 5892 5897
5825 5823 5821 5820 5818 5817 5818 5817 5814 5813 5814 5813 5812 5812 5812 5812 5813 5813 5815 5818 5821 5825 5828 5830 5833 5838 5842 5848 5854 5858 5858 5864 5865 5866 5868 5868 5871 5873 5879 5882 5881 5885 5887 5889 5894
5822 5820 5819 5818 5817 5816 5816 5815 5813 5813 5813 5812 5811 5812 5811 5812 5808 5809 5811 5811 5813 5819 5822 5825 5830 5834 5838 5843 5848 5852 5858 5862 5865 5864 5865 5866 5870 5870 5873 5874 5876 5880 5881 5885 5890
5820 5818 5818 5817 5815 5814 5814 5813 5812 5812 5812 5812 5811 5809 5807 5807 5808 5809 5809 5810 5812 5815 5817 5821 5823 5830 5834 5836 5844 5847 5854 5858 5860 5865 5868 5863 5870 5867 5870 5870 5875 5871 5870 5878 5885
5816 5816 5815 5813 5813 5811 5811 5811 5811 5811 5811 5810 5809 5808 5805 5804 5803 5803 5804 5804 5810 5812 5814 5817 5819 5824 5830 5836 5839 5844 5850 5855 5857 5865 5864 5864 5867 5866 5870 5872 5872 5871 5873 5874 5880
5812 5812 5812 5810 5810 5809 5808 5809 5809 5809 5808 5808 5807 5806 5804 5803 5800 5799 5802 5801 5805 5809 5811 5814 5820 5823 5827 5831 5833 5839 5845 5848 5854 5859 5862 5863 5864 5861 5865 5869 5871 5875 5877 5877 5876
5809 5807 5808 5807 5808 5807 5806 5805 5805 5806 5805 5805 5804 5803 5802 5800 5797 5797 5797 5800 5802 5804 5809 5810 5816 5818 5819 5823 5827 5832 5837 5844 5848 5852 5860 5863 5862 5861 5860 5864 5867 5869 5870 5877 5878
5805 5803 5802 5803 5802 5801 5803 5803 5803 5802 5803 5802 5800 5799 5797 5796 5796 5795 5793 5795 5797 5798 5801 5803 5810 5813 5813 5818 5824 5829 5834 5836 5841 5847 5851 5858 5858 5856 5859 5863 5866 5869 5870 5868 5871
5802 5802 5801 5799 5799 5801 5800 5799 5799 5799 5800 5798 5798 5795 5793 5793 5792 5790 5789 5790 5791 5790 5794 5797 5802 5805 5809 5815 5818 5823 5823 5822 5831 5834 5841 5847 5850 5851 5852 5858 5860 5862 5857 5859 5863
5799 5797 5797 5798 5796 5799 5797 5795 5795 5796 5797 5795 5794 5791 5789 5789 5788 5786 5784 5784 5784 5783 5785 5789 5795 5799 5803 5811 5815 5816 5816 5819 5825 5832 5838 5843 5844 5847 5844 5845 5852 5850 5843 5847 5858